Wind_Speed
26 28 30 31 31 31 32 32 33 35 36 37 38 39 40 41 41 41 41 42 42 42 42 42 43 44 44 45 45 46 47 47 47 47 47 47 47 46 46 45 44 45 46 49 51 52 52 52 53 54 55 56 55 56 56 56 57 58 59 59 58 58 59 60 60 57 55 57 58 58 58 58 58 55 52 48 47 49 51 51 50 49 48 49 50
26 28 29 30 30 30 30 31 32 34 36 37 38 39 40 41 41 42 42 42 42 43 43 44 45 45 46 47 47 48 48 49 50 50 50 49 49 48 48 48 47 46 46 48 50 52 53 53 53 54 55 56 56 56 56 57 58 58 58 59 59 59 59 59 60 58 55 56 58 59 60 61 61 58 54 50 47 47 48 49 49 49 48 49 51
28 28 29 29 29 29 30 31 33 34 35 36 37 39 40 40 41 42 42 43 44 44 45 46 47 47 48 49 49 50 50 51 52 52 52 52 51 50 50 50 49 48 48 48 49 51 53 54 54 54 55 56 57 57 57 57 58 59 58 58 59 59 60 60 61 60 57 54 55 59 61 62 63 60 57 53 48 46 47 48 47 45 44 45 48
31 31 30 30 30 31 32 33 34 34 35 36 37 39 40 41 42 42 43 44 45 46 47 47 48 49 49 50 50 51 51 52 53 53 53 54 53 52 51 50 50 50 50 49 50 51 52 54 55 56 55 56 56 57 57 57 58 59 59 59 59 59 60 61 61 61 59 55 54 56 59 61 63 62 60 57 50 48 49 48 45 42 40 39 39
33 32 32 32 31 32 33 34 34 35 36 37 38 39 41 41 42 43 44 46 46 47 48 48 48 49 49 49 50 51 51 52 53 53 53 54 54 53 52 51 50 50 51 51 51 51 52 53 55 56 56 56 56 55 56 57 58 59 60 60 60 60 60 61 61 61 60 57 54 55 57 58 60 62 62 59 53 49 50 50 46 42 40 40 37
34 34 34 34 33 33 34 34 35 36 37 38 39 40 41 41 42 43 44 45 46 47 47 47 47 48 48 49 49 50 51 52 53 53 53 53 53 53 53 52 51 51 51 51 52 52 52 53 55 57 57 56 56 55 55 56 57 58 59 60 60 60 60 60 61 61 61 59 55 56 58 58 58 59 59 58 55 52 52 53 53 49 45 44 41
35 36 36 35 34 34 34 35 36 37 38 39 40 40 40 41 42 42 43 44 44 45 45 46 46 47 47 48 49 49 50 51 52 53 53 53 54 53 53 53 52 51 51 51 52 53 53 54 55 57 57 57 56 56 55 56 57 57 58 59 60 61 61 60 61 61 61 60 58 57 58 57 57 57 56 56 56 54 53 54 54 51 48 48 48
37 38 38 37 35 35 35 36 37 38 38 39 39 40 40 40 40 41 41 42 42 43 44 44 45 46 47 48 48 49 50 50 51 52 52 53 54 54 54 54 53 53 52 52 52 53 53 54 55 56 58 58 58 57 56 55 56 56 57 58 59 60 60 60 60 61 61 62 60 59 56 54 54 54 53 54 55 51 50 51 51 50 48 49 51
38 40 40 39 38 37 37 37 37 38 38 39 39 39 39 39 39 39 39 40 40 41 42 43 44 45 46 47 48 49 50 50 51 51 52 53 54 54 55 54 54 54 54 53 53 53 53 54 55 56 58 59 59 59 57 56 55 55 56 57 58 58 59 59 59 60 60 62 61 59 57 53 52 52 50 49 49 47 47 50 52 52 52 52 52
40 42 42 40 39 39 38 37 38 38 39 39 39 39 39 38 38 39 39 40 40 41 42 43 45 45 46 47 47 48 49 49 50 51 52 53 54 54 55 55 55 55 55 55 54 54 54 54 55 56 58 59 60 60 59 58 56 55 55 56 57 58 58 58 59 59 59 60 60 60 58 56 55 54 50 47 48 49 48 48 49 51 54 55 53
44 45 45 43 42 41 40 39 39 39 39 40 40 39 39 39 39 39 39 40 40 40 42 43 46 47 48 48 49 49 49 49 50 51 52 54 54 55 55 56 56 56 56 56 56 55 55 56 56 57 58 59 60 61 61 60 59 57 56 55 56 57 57 57 57 58 58 58 59 60 60 57 56 57 56 52 51 51 50 48 48 48 51 53 53
48 47 45 44 44 42 40 40 39 39 40 40 40 40 40 39 39 39 39 38 37 38 40 42 45 47 49 50 50 50 51 51 51 52 53 55 56 56 57 57 57 57 57 58 57 57 57 57 57 58 58 59 60 61 62 62 61 60 59 57 56 57 58 57 57 57 57 57 57 58 59 58 56 55 56 54 52 51 50 49 48 46 45 47 50
46 46 44 42 41 41 40 40 40 40 40 41 41 41 40 40 40 40 38 37 37 39 41 43 46 47 49 50 51 51 52 52 53 54 55 56 57 58 58 58 58 58 58 59 59 59 59 59 59 58 59 60 60 61 62 62 62 62 62 60 58 57 58 58 57 56 56 57 57 57 57 58 56 54 53 52 51 51 50 48 46 44 41 41 45
46 44 42 40 39 39 39 39 40 41 41 41 41 41 41 41 41 41 39 39 40 42 44 47 48 49 49 50 51 51 52 52 54 55 56 57 58 59 59 59 59 59 59 59 60 60 60 61 60 60 60 60 61 61 62 63 63 63 63 62 60 58 58 58 58 57 57 56 56 55 55 56 56 54 54 53 52 53 54 51 48 47 45 43 43
53 46 41 40 38 38 39 40 41 41 41 42 42 42 42 43 42 42 41 41 43 45 48 49 50 49 49 49 50 51 51 52 53 54 54 55 57 58 59 59 60 60 59 59 60 60 60 61 61 61 61 61 61 62 63 63 64 64 63 63 62 61 59 58 58 58 58 56 55 55 55 55 55 55 54 54 54 54 54 53 53 55 53 49 45
57 48 42 40 38 38 39 40 42 43 42 43 43 43 43 43 43 43 43 44 46 49 50 51 50 49 49 49 50 51 51 52 53 53 54 55 56 57 58 58 59 59 59 59 60 60 60 61 61 62 62 61 61 62 63 64 64 64 64 63 63 62 61 59 58 58 58 58 56 55 55 56 56 55 55 55 56 56 55 54 53 55 56 53 49
54 44 39 39 39 39 40 41 42 43 43 43 43 43 44 44 44 44 44 46 49 51 52 52 51 50 50 51 51 51 52 53 53 54 55 55 55 56 57 57 58 58 59 59 60 60 60 61 61 62 62 62 62 62 63 64 64 64 64 64 64 63 62 60 60 59 59 59 58 57 56 56 56 56 55 55 56 58 59 57 53 51 52 53 50
56 47 40 38 39 40 42 42 43 43 43 43 44 44 44 44 44 45 46 49 52 52 53 53 52 52 52 52 53 53 53 54 54 54 53 54 54 54 55 56 56 57 57 58 59 59 60 61 61 62 62 62 63 63 63 64 64 64 64 64 65 64 62 61 61 60 59 59 59 58 58 57 57 56 55 55 56 57 59 58 55 52 50 50 50
61 59 52 45 42 43 44 42 42 43 43 43 43 44 44 44 44 46 49 51 52 53 53 54 53 53 53 54 55 55 54 53 52 52 52 52 53 53 54 55 55 56 56 56 57 58 59 60 61 61 61 62 63 64 64 64 64 64 64 65 65 64 62 61 62 62 60 60 60 60 59 58 58 58 56 55 56 56 56 56 55 55 52 49 49
56 58 56 51 48 47 45 42 41 42 43 43 43 43 43 43 46 49 50 51 52 52 53 53 53 54 55 55 55 53 52 51 51 52 53 53 54 54 55 55 55 55 55 55 56 57 58 59 60 60 61 61 62 63 64 65 65 65 65 66 65 63 62 63 63 62 62 60 60 61 61 59 59 58 57 56 55 54 54 54 54 55 53 51 50
51 51 51 50 51 48 43 41 41 42 42 43 42 42 42 45 47 49 50 50 51 52 53 53 54 56 56 54 52 51 51 52 53 55 55 55 55 55 54 54 54 54 53 53 53 54 56 57 58 58 59 60 60 62 63 64 65 66 66 66 65 65 65 65 64 63 62 61 60 61 62 61 60 58 57 56 54 53 53 53 52 52 53 53 52
45 44 43 44 46 44 41 40 41 41 41 41 41 41 43 46 48 49 50 51 51 53 53 54 55 56 54 52 51 51 52 54 56 57 56 55 53 52 51 50 51 51 51 50 50 51 52 53 54 55 57 58 58 59 61 63 64 65 66 67 67 69 69 67 66 65 63 61 60 61 62 61 60 58 57 55 53 52 52 52 52 51 52 52 52
41 39 39 39 40 41 40 39 40 40 40 40 40 42 44 46 47 49 51 51 52 53 54 55 55 54 52 51 51 53 55 56 56 55 54 51 50 49 50 51 52 53 52 51 50 51 51 52 53 55 57 58 58 58 59 61 63 64 65 67 69 71 71 70 67 66 64 61 60 61 61 61 59 57 56 54 53 52 52 51 51 51 51 51 51
42 39 39 39 39 40 40 39 38 38 38 39 40 42 44 46 48 50 51 52 53 54 54 54 53 51 50 50 53 55 56 55 53 52 50 50 50 50 50 50 50 50 49 47 46 46 47 48 51 53 55 56 57 57 58 59 60 62 64 67 69 70 72 70 68 67 65 62 60 59 59 59 58 56 54 53 53 52 51 51 51 52 51 51 52
39 38 40 40 39 39 38 37 36 36 37 39 40 42 45 47 49 51 52 52 53 53 53 51 49 49 50 52 53 54 53 51 49 48 49 50 50 47 45 43 42 42 40 39 39 40 41 44 46 49 50 52 53 55 56 58 59 61 63 65 66 67 69 69 68 68 66 62 59 57 57 56 56 55 54 53 53 51 50 50 51 52 52 52 54
37 38 39 37 35 34 34 33 34 36 37 39 40 43 45 48 49 50 51 52 52 51 50 48 48 49 51 52 52 50 48 47 46 46 48 48 44 39 37 36 36 36 35 34 35 38 41 44 47 48 48 48 49 50 53 56 58 59 60 61 62 63 65 65 66 66 64 60 56 55 55 55 55 54 53 53 51 49 47 47 49 51 53 53 54
35 36 34 31 30 29 29 31 33 36 37 39 41 43 46 47 48 49 50 50 49 48 47 47 48 50 50 50 48 46 44 43 44 45 46 43 36 33 33 34 34 34 33 33 36 38 41 44 46 46 47 46 45 45 47 51 55 56 55 56 57 58 59 61 63 63 60 57 55 54 54 55 54 52 52 52 51 49 47 47 47 49 54 55 55
32 30 27 25 24 26 28 31 33 35 37 39 41 43 44 45 46 47 47 46 45 46 46 48 49 49 48 46 44 42 41 41 42 43 43 38 33 32 33 32 32 32 32 33 36 38 40 40 41 40 40 38 37 37 39 43 47 49 50 51 52 53 53 56 58 58 56 55 54 53 54 53 51 51 51 51 50 49 49 49 48 48 52 56 56
24 21 20 22 24 26 29 31 33 35 37 40 41 42 42 43 44 43 43 44 44 45 46 48 49 48 45 43 41 39 38 38 38 39 38 34 30 29 29 29 29 29 30 32 34 35 35 35 34 32 30 28 28 29 31 34 37 40 43 44 46 46 47 50 52 52 52 52 52 52 52 50 49 50 50 48 47 47 47 50 51 50 51 55 57
17 17 19 22 25 28 30 31 33 36 39 40 40 40 40 40 40 40 42 43 44 45 47 48 48 45 42 40 39 39 37 35 33 32 31 28 25 25 25 25 26 27 28 29 31 31 31 30 28 26 24 24 24 25 26 27 29 32 35 38 39 40 42 44 45 47 47 48 49 49 49 48 47 49 48 45 44 44 45 47 50 51 51 53 56
17 18 21 23 26 28 29 31 34 37 39 39 39 38 38 37 37 39 41 43 44 46 47 47 46 43 40 38 37 37 36 34 29 26 24 23 23 23 22 22 24 25 26 27 29 27 24 24 24 23 22 22 22 22 23 24 26 27 30 32 34 36 38 39 40 42 44 45 46 46 46 46 47 47 45 43 41 42 42 43 45 48 50 52 53
18 20 22 24 26 27 29 32 35 36 36 37 36 36 35 35 36 38 40 41 43 45 46 45 43 40 38 37 36 34 33 31 26 22 21 23 24 25 24 23 24 24 24 26 26 22 18 18 20 22 21 20 20 20 21 22 23 24 26 28 30 33 35 37 38 40 42 43 44 45 45 46 46 44 42 40 39 38 37 37 40 43 47 49 50
18 21 23 24 26 28 30 32 33 34 34 34 34 33 33 34 36 38 39 40 42 43 43 42 40 37 36 36 35 33 31 26 22 20 21 23 27 29 28 26 25 24 23 22 22 19 14 13 15 19 21 19 17 18 19 20 22 23 24 25 27 29 32 35 38 40 42 43 44 45 45 44 43 41 39 37 35 34 33 34 37 40 44 46 47
19 21 22 24 26 27 28 30 31 31 32 32 32 31 31 32 35 37 38 39 40 41 40 39 37 37 36 35 35 33 28 23 20 19 21 22 23 23 22 21 21 21 20 19 19 17 13 10 10 16 20 19 16 16 17 18 20 23 24 25 28 30 33 36 38 40 42 43 44 44 43 42 41 39 36 35 33 32 32 33 35 38 40 41 41
18 20 22 23 24 26 27 28 29 30 31 31 31 31 30 32 34 36 37 37 38 38 37 36 35 36 35 34 34 32 26 20 18 18 19 20 20 19 18 17 17 17 17 17 16 15 14 11 8 12 18 19 17 15 14 15 17 21 24 27 29 32 35 37 39 40 41 42 42 42 42 41 39 36 34 33 32 31 31 32 34 36 37 37 37
17 19 20 21 23 25 26 28 29 30 30 30 30 30 30 31 34 34 34 35 36 36 35 34 33 34 34 33 33 32 28 21 17 17 19 21 22 22 21 19 17 16 16 16 15 14 14 12 8 8 13 18 19 16 14 14 14 17 21 26 30 32 35 36 37 39 39 39 40 40 40 38 36 34 34 32 30 29 29 30 32 34 36 36 36
16 17 18 20 23 24 26 28 29 29 29 29 29 29 29 30 32 32 32 33 34 34 33 31 31 31 31 32 33 33 30 25 19 17 19 23 25 25 23 21 19 17 15 15 14 13 13 12 10 9 10 14 19 19 16 14 14 14 17 22 27 31 34 34 35 36 37 38 38 38 37 36 35 35 34 32 30 28 27 27 29 33 37 38 38
14 16 18 20 23 24 25 26 27 27 27 27 27 27 28 28 29 29 30 31 32 32 31 29 28 28 28 30 31 31 31 28 23 20 22 25 25 23 21 20 19 16 14 14 13 12 12 12 12 13 11 11 16 20 18 16 15 15 15 17 22 27 31 33 34 34 35 37 37 37 36 36 36 35 34 32 29 28 26 26 27 31 36 40 40
13 15 17 20 21 23 23 24 25 24 24 24 24 25 26 25 25 27 28 29 30 30 29 27 26 26 26 28 29 28 28 26 23 22 23 22 21 19 18 17 16 13 11 10 11 11 13 14 15 16 14 11 12 17 20 19 17 16 15 16 18 22 26 30 32 34 35 36 37 37 37 37 36 35 33 31 29 28 27 28 28 29 32 36 39
12 14 17 18 20 21 22 22 23 23 23 22 22 22 23 23 23 24 26 28 29 29 28 26 25 25 25 26 26 26 25 23 21 20 19 17 15 15 15 14 13 12 9 8 9 10 13 16 19 19 19 16 13 14 18 21 20 18 17 17 18 20 24 27 30 33 35 36 37 37 37 37 35 34 32 31 30 29 28 28 30 31 31 32 36
11 13 15 17 18 19 20 20 21 21 21 21 21 21 21 21 21 23 25 27 27 28 27 26 24 24 24 25 25 25 25 23 20 17 15 12 11 12 12 11 10 10 9 8 9 10 12 15 19 21 22 21 18 16 17 21 23 22 21 21 21 22 24 27 30 33 35 36 37 37 36 35 33 33 32 32 30 30 29 28 30 33 36 37 37
11 13 14 16 17 18 19 19 19 20 21 21 21 20 20 19 20 22 24 25 26 27 27 25 24 23 23 23 24 25 25 24 21 17 13 9 9 9 9 9 9 8 8 7 7 9 10 12 17 22 23 24 23 22 20 21 23 25 25 24 25 26 27 28 30 31 32 34 34 34 34 33 32 32 32 32 31 30 31 31 31 33 37 39 39
12 13 15 16 17 18 18 18 19 19 20 20 20 19 19 18 19 20 22 24 26 27 27 26 23 22 21 22 23 23 24 24 22 19 14 9 8 7 6 7 10 11 9 6 4 4 6 9 13 18 22 23 24 25 24 23 23 26 28 28 28 29 30 31 31 31 32 32 32 32 32 32 32 32 32 32 32 32 32 32 31 32 34 36 36
13 14 16 17 17 17 17 18 18 19 19 19 19 19 18 18 18 19 20 23 25 26 27 26 24 21 20 20 20 21 22 22 21 20 16 12 9 7 6 8 13 13 9 5 4 2 2 5 7 12 17 21 22 23 23 23 23 25 29 31 31 32 32 32 32 32 32 32 32 31 31 32 32 33 33 33 33 32 31 30 31 32 35 36 36
14 15 16 16 16 16 16 17 18 18 19 19 19 19 19 19 18 18 19 21 23 25 26 26 24 21 20 19 19 19 20 20 20 19 17 14 12 9 9 11 14 12 6 3 2 2 4 6 6 7 12 17 20 21 22 23 24 25 28 32 35 36 35 34 34 34 34 33 33 32 33 33 33 34 34 34 33 32 31 31 32 32 32 32 32
14 15 16 16 15 15 16 16 17 18 18 19 19 19 19 19 19 18 18 19 22 23 25 25 25 23 21 19 18 18 18 18 18 18 17 15 13 11 10 12 13 8 3 1 3 6 8 8 8 7 8 13 17 19 20 22 23 24 25 28 31 35 37 37 37 36 35 34 33 33 32 32 32 32 33 33 32 31 32 33 31 28 27 27 28
15 15 16 15 14 15 16 16 16 17 18 18 18 19 19 19 19 19 18 18 20 22 23 25 25 25 23 20 18 17 16 16 16 17 16 15 13 11 9 11 10 7 3 2 4 8 10 8 6 6 6 11 14 15 16 18 20 21 22 23 23 27 29 30 31 32 32 31 31 31 30 29 29 30 31 32 32 34 35 33 29 26 27 30 32
15 15 15 14 14 15 15 15 16 16 17 18 18 18 18 19 19 19 19 18 18 20 22 23 25 25 24 22 19 16 15 14 15 15 15 15 13 11 10 10 10 7 3 1 2 6 10 10 5 5 5 9 12 12 14 16 18 20 22 22 22 24 25 26 27 28 29 31 32 30 27 26 27 28 29 31 34 34 32 28 25 24 27 30 34
16 15 15 14 14 14 15 16 16 16 17 18 18 18 18 18 18 18 19 19 19 19 20 22 24 24 25 24 21 18 14 14 14 14 14 14 13 12 11 10 9 7 3 2 2 4 8 11 10 5 5 7 9 12 14 15 16 19 21 22 21 22 24 27 28 26 26 31 34 30 24 23 25 27 29 32 32 28 23 20 21 22 24 27 30
16 15 15 14 14 14 15 16 16 17 17 18 19 19 19 18 18 18 18 19 19 20 20 22 23 24 25 25 24 21 16 13 13 14 14 13 13 11 10 9 8 7 5 3 5 6 7 10 12 11 9 8 8 11 13 14 16 18 19 20 20 20 23 27 29 26 24 27 29 26 23 23 23 24 26 29 28 23 20 21 22 23 23 25 27
16 16 15 14 14 14 14 15 16 16 17 18 19 20 20 20 19 18 18 18 19 19 20 21 22 24 25 25 26 24 20 16 14 14 14 13 12 11 10 8 7 6 5 3 3 5 7 8 11 12 13 12 12 12 13 15 16 18 18 18 18 20 23 25 27 26 25 26 26 25 24 24 23 21 22 24 23 21 21 23 24 23 23 27 30
Wind_Direction
276 272 270 270 271 272 274 275 275 275 275 274 274 275 275 275 275 275 275 274 274 273 273 272 271 270 270 270 271 271 271 271 271 271 272 272 272 271 269 266 262 259 256 256 257 258 258 257 256 256 256 256 256 256 256 256 256 256 256 256 256 256 256 256 256 254 251 252 253 254 256 257 255 254 254 254 258 261 257 254 256 257 259 260 259
281 277 273 272 274 275 276 276 276 276 277 277 277 277 277 277 277 277 277 276 276 275 274 273 273 272 272 272 272 272 272 272 272 271 271 272 271 271 270 268 266 261 257 255 255 256 257 257 256 255 255 255 255 256 256 256 256 255 255 256 256 257 257 257 256 255 253 251 252 253 254 256 255 255 255 255 259 260 254 254 259 261 263 263 261
279 277 276 275 275 276 276 276 277 277 278 279 279 280 279 279 280 279 279 278 277 277 275 274 274 274 274 274 273 273 272 272 271 271 271 271 270 269 268 268 266 264 260 256 254 253 255 256 256 255 255 255 255 255 255 255 255 255 255 255 255 256 257 258 258 257 255 252 252 252 253 255 255 255 255 255 256 255 251 252 255 259 262 262 259
274 274 275 275 275 275 275 276 276 277 279 280 281 281 281 281 281 281 280 279 278 277 277 276 275 275 275 274 274 273 273 272 271 270 270 270 269 268 267 266 265 264 261 258 255 253 252 253 255 255 254 254 254 255 255 255 255 255 255 254 254 255 255 257 258 258 257 255 253 252 252 254 255 255 254 253 252 252 250 247 248 253 257 256 255
270 272 272 272 273 272 273 273 275 277 279 280 280 281 281 281 281 281 280 279 279 278 278 277 277 276 276 275 275 274 273 273 272 271 270 269 268 268 266 265 264 263 262 260 257 255 252 251 252 254 255 254 253 254 254 255 255 255 255 254 254 254 254 255 256 257 258 257 255 254 253 253 254 255 255 253 251 249 248 245 244 249 254 254 253
267 269 269 268 269 269 269 271 273 276 278 279 280 280 281 281 280 279 279 279 279 278 278 278 278 278 277 277 276 275 274 273 273 272 271 270 269 268 267 265 263 262 261 260 258 256 254 251 250 251 254 255 254 253 253 254 254 254 254 254 254 253 252 253 254 255 256 256 256 255 254 254 254 255 256 256 253 248 245 244 245 248 252 254 254
265 267 266 265 266 265 266 269 273 275 277 278 279 279 279 279 279 279 279 279 280 280 280 280 280 279 278 277 276 275 274 273 273 272 272 271 270 269 268 266 265 263 261 260 259 257 255 253 251 250 251 252 254 255 254 253 253 253 253 254 254 253 252 252 252 252 253 254 254 254 254 255 255 256 256 257 255 251 247 247 249 251 253 255 254
267 267 264 262 263 263 265 268 271 273 274 275 276 277 278 278 278 279 280 281 281 282 283 282 282 280 279 277 275 274 273 272 272 272 271 271 270 270 269 268 266 265 263 261 260 258 257 255 253 252 251 250 251 253 254 254 253 252 252 253 254 254 253 252 251 251 251 252 252 252 252 253 255 256 256 256 257 256 253 252 252 251 252 252 252
267 266 263 261 262 263 265 268 269 269 270 271 273 275 276 276 277 279 279 281 282 284 285 285 285 283 280 278 276 274 273 272 271 271 271 271 270 270 269 268 267 266 265 263 261 259 258 256 254 253 252 251 251 251 252 253 253 253 252 252 253 253 253 252 251 250 249 250 251 251 251 249 249 251 253 255 257 257 254 252 250 249 249 250 251
263 262 261 260 261 263 264 266 267 266 266 268 270 272 273 275 276 277 279 281 283 286 287 288 286 284 282 280 278 276 275 274 273 272 271 270 270 270 270 269 268 267 266 265 263 261 259 258 256 254 253 253 252 251 251 251 252 253 253 253 252 252 252 252 251 250 248 248 248 249 249 247 245 245 247 249 253 255 253 251 250 249 249 250 251
259 256 258 259 261 263 264 264 264 264 264 266 269 270 272 274 275 276 279 282 286 289 290 289 286 284 282 280 279 277 275 275 274 273 272 271 270 269 269 269 268 267 267 265 264 262 260 259 257 256 254 253 253 252 252 251 251 251 251 252 252 252 251 250 250 250 249 247 246 246 247 247 245 245 245 246 248 252 252 251 250 250 249 250 251
255 252 256 260 261 262 262 264 263 262 262 265 268 270 271 274 275 276 279 283 289 294 295 294 290 286 282 281 279 277 276 274 273 272 271 271 270 270 269 268 268 267 267 266 265 263 262 260 258 256 255 254 253 252 252 252 252 250 250 250 250 252 252 250 250 250 249 247 246 245 245 246 245 245 247 247 247 250 252 251 249 249 249 250 251
251 251 255 258 260 260 261 262 262 261 262 265 267 269 271 274 275 276 279 284 292 297 298 298 294 289 284 281 279 277 276 274 273 271 271 270 270 270 269 268 268 267 266 265 264 263 262 260 258 257 256 255 253 252 252 252 251 251 250 249 248 249 251 251 250 249 248 248 246 244 244 245 246 245 246 246 244 246 249 250 248 247 246 248 249
250 256 258 257 258 259 260 261 261 261 263 265 267 269 272 275 276 276 280 286 293 296 297 297 295 291 287 284 281 279 277 276 275 273 272 272 271 270 270 269 268 267 266 265 264 262 261 260 258 257 255 254 254 253 252 251 251 250 249 249 248 247 248 249 250 249 248 248 247 245 244 244 245 245 245 244 242 243 246 247 247 246 244 243 244
252 256 258 256 255 256 258 259 260 261 263 264 266 268 272 275 276 278 282 288 292 294 295 296 295 292 288 286 283 281 280 279 277 276 275 274 273 272 271 270 269 268 267 266 264 262 261 259 258 256 254 253 253 252 252 251 250 250 249 248 247 247 247 247 248 249 249 248 247 246 245 244 243 243 244 244 242 242 243 244 244 244 243 243 243
254 254 256 254 251 252 256 258 259 260 262 264 265 269 273 276 277 280 284 288 291 292 294 295 294 290 287 285 284 282 281 281 280 278 277 276 275 274 272 271 270 269 268 267 266 264 262 259 258 256 254 253 251 251 251 251 250 249 249 248 247 246 246 246 247 247 247 247 246 245 245 244 243 242 242 243 243 242 242 242 243 243 243 243 242
252 252 252 251 248 250 253 255 257 259 261 263 266 270 274 276 278 281 285 287 289 291 293 293 291 289 287 285 284 284 283 283 282 280 279 278 276 275 273 272 270 269 267 266 265 264 263 261 259 256 255 253 251 250 250 250 249 249 248 248 246 245 245 245 246 246 246 246 246 245 244 244 244 243 242 242 243 243 242 242 242 243 242 241 239
251 252 254 253 250 249 251 253 256 258 261 264 267 271 275 277 280 282 284 287 289 291 292 292 290 289 288 288 287 287 286 285 283 282 281 279 278 276 275 273 271 269 268 266 265 264 263 262 260 258 256 254 252 251 250 250 249 248 248 247 246 245 244 243 244 244 244 245 245 244 244 244 244 244 243 242 242 243 244 244 242 243 243 240 236
250 254 259 261 254 249 250 252 256 259 262 264 268 272 276 279 281 283 285 288 290 290 291 291 290 290 290 291 290 289 288 287 286 285 283 283 281 280 278 276 274 272 270 268 267 266 264 263 262 260 258 255 253 251 249 249 249 248 248 247 246 245 244 243 243 242 242 243 243 244 244 243 243 244 243 242 242 243 244 245 243 242 242 239 236
253 257 261 260 252 246 247 252 256 259 262 265 270 274 277 280 282 284 287 289 290 290 291 292 292 292 293 293 292 291 290 289 289 288 287 285 283 281 279 277 275 273 271 269 268 266 265 264 263 262 260 257 254 252 250 248 247 247 247 247 246 245 244 243 242 241 240 240 241 242 243 242 242 243 243 243 243 243 243 244 244 243 241 240 238
259 260 258 252 244 242 246 251 255 259 262 266 271 275 278 281 283 286 288 289 290 292 293 293 294 294 294 294 293 292 291 291 290 288 287 285 283 282 280 277 276 274 272 270 267 265 264 263 262 262 260 258 256 254 251 249 247 245 245 245 245 244 243 241 241 240 238 238 238 240 241 241 241 242 243 243 243 243 243 243 243 243 241 240 239
254 254 251 245 241 242 247 251 255 260 264 268 273 276 279 283 286 287 289 290 292 293 293 294 295 295 294 293 293 292 292 291 290 288 287 285 284 282 280 278 277 276 274 271 268 266 264 263 262 261 260 259 257 254 252 250 247 246 244 243 243 243 241 240 239 239 238 236 236 237 239 240 240 241 242 243 242 242 243 242 241 242 240 238 238
245 246 249 251 248 246 249 253 257 261 266 271 275 278 282 285 287 288 290 292 293 293 293 295 295 294 294 293 293 293 292 291 290 288 287 286 284 283 282 281 279 277 274 272 269 267 266 264 263 261 261 259 258 255 253 250 248 246 244 243 241 241 241 239 237 237 237 235 235 236 237 239 240 240 240 241 241 242 242 241 239 239 237 235 235
243 247 254 259 257 252 250 254 259 264 269 273 278 282 286 288 288 290 292 293 293 293 294 295 294 294 293 293 293 293 292 291 289 288 287 286 286 286 284 281 278 275 273 271 270 268 266 264 263 261 260 259 258 256 254 251 249 246 245 243 241 241 240 239 237 236 235 234 234 235 236 237 238 239 238 238 239 240 241 240 239 237 234 233 231
246 252 257 261 260 253 251 255 262 267 272 277 282 285 287 289 290 292 293 293 293 294 295 295 294 294 293 293 292 292 291 289 288 288 288 289 289 288 284 280 277 275 274 273 272 271 269 268 266 264 262 260 258 255 253 251 249 246 244 243 242 240 239 238 237 235 234 233 233 234 235 235 235 236 236 236 237 239 240 240 239 236 233 231 229
249 254 256 255 252 249 252 259 265 271 276 281 284 286 288 290 292 293 293 293 294 295 296 296 295 294 294 294 293 291 289 288 290 291 291 292 290 286 281 279 276 276 276 275 274 274 273 272 270 268 266 263 260 256 252 249 248 246 243 242 241 239 237 236 235 235 233 232 232 233 233 233 232 232 233 234 235 237 238 239 238 235 231 230 229
248 249 247 246 246 251 259 267 271 276 280 283 284 287 290 292 293 293 294 295 297 297 297 297 296 295 295 294 292 290 290 292 294 294 293 291 286 281 279 278 276 275 276 275 276 276 276 274 272 270 268 266 262 257 251 247 246 245 243 240 239 237 235 233 232 233 231 230 229 230 230 230 229 228 229 232 233 233 233 234 235 233 229 227 228
241 240 240 245 253 262 269 273 276 279 281 283 286 289 291 293 294 296 297 299 299 299 298 297 297 297 296 293 291 292 295 298 298 294 291 287 283 280 279 278 275 274 273 274 277 280 279 276 273 270 267 264 260 255 250 246 244 242 241 239 237 234 232 230 229 229 228 227 226 226 227 226 225 225 227 230 233 233 231 231 231 231 228 226 227
239 241 249 258 265 271 274 277 279 280 282 285 288 291 293 295 297 299 300 300 300 299 299 299 299 298 296 294 294 297 299 300 298 293 289 286 284 281 279 276 274 272 272 275 281 283 282 279 274 268 261 258 255 250 246 243 241 239 237 235 233 231 228 226 225 224 223 223 224 224 224 223 222 223 226 229 232 233 233 231 230 229 228 225 225
251 259 266 269 272 275 277 278 279 281 284 287 290 292 295 298 300 300 300 300 300 300 301 301 300 298 296 296 299 302 304 304 300 294 289 287 285 283 280 277 273 271 273 279 284 285 282 279 272 261 254 253 251 245 239 235 233 232 230 227 225 224 223 222 221 220 219 220 221 221 220 219 219 221 224 227 231 232 233 231 229 227 226 225 225
263 270 273 273 274 276 277 279 282 284 287 290 292 295 298 300 300 299 299 300 301 302 303 303 301 299 298 300 303 306 309 309 304 294 289 288 288 286 284 281 277 273 274 280 285 284 279 273 265 254 249 251 248 240 233 229 227 225 224 222 220 219 218 218 217 217 217 217 217 217 216 215 217 219 222 225 228 230 231 231 228 226 225 224 224
267 270 272 272 274 277 279 282 284 287 290 293 295 299 301 300 298 298 299 301 303 304 304 303 301 300 301 304 307 310 313 311 304 294 291 293 293 292 288 285 283 278 273 276 282 281 272 263 257 248 245 249 248 238 227 223 221 221 220 219 217 216 215 214 213 213 213 213 213 213 213 213 215 217 220 223 226 229 230 230 227 225 223 223 223
267 270 273 274 277 279 282 285 287 290 293 297 299 301 301 299 298 299 301 303 304 305 305 304 302 303 306 308 311 315 316 311 303 299 299 298 296 295 291 286 282 277 271 273 278 276 263 252 248 242 241 244 246 240 229 220 216 215 215 214 213 211 209 208 208 207 208 209 210 211 211 212 213 215 217 220 223 226 227 226 224 223 222 221 221
269 273 276 279 282 284 286 289 292 294 297 298 300 301 300 300 301 303 304 306 307 309 310 308 306 308 310 311 314 317 317 311 306 307 308 305 304 304 302 294 284 274 268 272 278 274 263 253 242 235 236 238 239 238 234 224 215 210 209 209 208 205 204 203 204 204 205 206 207 208 208 209 210 212 214 216 220 221 221 221 220 219 218 218 219
273 277 281 285 288 291 293 294 296 297 299 299 300 301 301 302 304 305 306 308 311 313 313 311 310 311 312 313 316 319 319 314 309 310 311 311 311 313 314 311 298 282 272 274 279 273 263 257 246 231 230 233 235 234 232 228 220 211 206 206 206 205 204 203 204 205 206 206 206 206 206 206 207 208 211 213 215 217 217 218 219 217 214 214 218
278 283 288 291 294 296 298 299 299 300 300 300 300 301 303 305 306 306 307 310 315 317 316 314 313 313 314 316 318 321 322 318 310 307 313 317 316 311 309 311 309 297 282 277 277 270 257 249 247 240 229 227 230 233 232 229 225 217 211 208 207 206 206 206 207 206 205 205 204 203 203 203 204 206 209 211 213 215 216 218 218 215 210 212 217
284 291 296 297 299 300 301 301 301 301 301 301 301 301 303 304 306 306 309 314 319 321 319 317 315 315 315 316 318 321 323 320 310 300 305 316 318 312 306 305 308 306 294 282 275 267 252 237 236 245 237 221 220 226 231 230 228 224 218 214 210 208 206 205 205 205 204 202 201 200 199 200 202 205 207 209 211 214 216 218 220 217 213 213 215
291 297 299 300 301 301 301 302 303 304 304 302 300 300 301 304 306 309 313 319 323 323 322 319 317 316 315 316 318 321 324 323 316 306 307 316 319 315 307 304 307 309 300 287 276 261 244 227 220 229 236 224 213 215 220 227 229 225 221 218 213 209 206 203 200 199 198 197 196 196 197 199 202 205 207 208 211 213 214 217 222 223 219 218 217
295 298 299 300 300 301 303 306 308 308 305 301 299 299 301 305 309 312 317 324 327 327 325 322 319 318 317 317 319 323 324 324 321 315 314 317 320 319 314 310 308 307 299 290 280 259 237 217 206 209 219 225 220 213 212 217 222 222 217 214 210 205 201 198 194 192 191 192 193 195 197 201 203 205 207 209 212 216 217 217 220 223 224 224 221
296 298 298 298 300 303 308 311 312 310 306 302 300 300 302 307 313 318 323 329 332 331 329 325 321 320 319 319 322 325 326 325 324 321 319 320 322 324 323 319 314 309 298 285 277 262 237 216 206 204 206 211 218 218 212 211 212 211 208 205 201 196 192 188 186 186 187 190 193 196 200 202 204 206 210 212 215 218 221 221 221 220 221 223 221
292 294 297 300 303 307 310 312 312 310 308 305 305 305 307 314 322 325 328 333 335 335 332 329 325 323 322 323 325 329 330 330 330 327 324 326 331 332 333 335 329 320 308 289 272 261 244 223 212 208 206 204 202 203 207 209 207 204 201 199 196 193 190 187 187 188 190 193 196 199 202 204 206 209 212 215 218 223 226 227 227 223 219 219 219
290 296 300 303 305 307 310 313 313 313 311 310 310 311 314 322 329 330 331 334 339 339 337 333 330 327 326 327 329 332 333 333 333 331 328 328 335 337 343 357 1 349 335 317 283 260 249 233 219 214 213 205 195 191 200 209 208 203 201 199 196 195 195 195 195 197 198 199 200 202 204 207 210 212 214 218 222 226 227 229 231 227 221 218 215
294 300 302 303 305 308 312 314 315 314 313 313 314 317 321 326 330 332 334 337 341 342 340 338 335 331 329 331 333 335 335 335 335 335 329 324 329 335 343 1 2 353 345 340 321 270 247 234 222 218 215 210 202 201 206 210 207 204 204 203 200 199 200 200 201 203 203 204 205 206 209 211 213 215 219 223 225 227 228 230 230 224 216 210 207
292 297 299 301 305 310 313 315 315 315 316 318 321 325 327 328 330 335 338 339 341 342 342 341 339 336 334 336 338 337 336 336 338 336 328 320 321 325 324 336 343 341 335 338 350 328 224 207 207 208 207 204 203 203 203 200 200 203 207 207 205 203 203 203 203 204 205 207 209 211 213 215 218 220 222 224 225 226 227 225 219 211 206 204 204
290 293 296 300 306 311 313 315 315 317 320 324 327 331 333 332 333 338 342 342 342 343 344 344 344 343 341 341 341 341 340 339 338 336 329 321 318 318 320 331 340 340 333 337 26 98 135 139 145 170 187 191 192 194 196 196 198 202 207 209 209 208 207 206 206 207 209 211 213 215 216 217 219 220 221 221 222 223 220 214 207 204 205 208 210
289 293 296 301 306 310 311 313 316 318 322 325 329 333 336 336 336 340 343 343 343 344 345 347 349 349 347 345 345 347 346 342 339 339 336 330 326 322 320 329 341 350 358 50 122 139 141 135 130 140 168 178 181 184 189 192 194 196 198 202 206 208 209 208 208 210 212 214 215 215 215 214 215 216 217 217 218 216 210 203 202 207 216 222 224
289 292 295 299 304 307 309 312 315 317 320 324 329 333 336 337 338 340 342 344 346 347 348 350 352 352 352 352 351 352 352 347 343 343 343 340 337 331 324 330 345 1 26 75 131 155 161 151 120 105 150 176 179 177 178 180 181 182 185 188 193 198 202 204 205 206 208 208 207 206 205 205 208 209 209 209 208 205 203 202 205 217 228 231 234
286 289 291 295 300 304 305 308 310 312 316 320 324 329 334 337 339 340 341 343 346 349 351 353 354 354 356 357 357 359 358 354 350 348 347 346 345 339 334 339 350 357 359 50 126 165 180 181 146 84 118 172 185 186 184 183 182 182 183 184 185 188 191 193 195 199 201 199 195 192 193 197 199 198 198 200 201 201 204 210 216 224 231 236 238
283 286 289 293 297 300 302 304 306 308 311 314 317 323 329 334 338 341 343 344 347 350 353 355 355 356 358 1 3 5 3 360 359 357 354 352 353 352 347 348 353 353 329 278 242 205 198 199 198 179 155 174 186 187 185 186 184 182 181 180 181 184 188 188 188 190 191 190 188 187 190 192 192 191 194 197 199 203 214 226 231 234 239 241 237
281 284 286 289 294 297 299 301 303 306 309 311 313 317 322 328 334 340 345 347 350 352 355 356 357 358 360 2 6 8 8 5 7 9 5 359 360 3 2 358 355 353 343 300 263 247 228 218 216 213 206 201 200 196 192 188 183 180 181 182 179 178 181 183 184 182 180 181 185 189 191 188 186 187 191 195 197 204 220 235 242 245 242 232 221
278 280 282 285 289 292 294 298 302 305 306 308 309 312 316 321 327 334 340 345 349 352 355 356 357 359 1 2 5 9 10 10 11 15 17 12 7 5 8 9 3 357 357 348 282 251 242 236 231 225 219 217 216 214 211 204 195 190 191 192 187 179 177 180 184 185 184 184 188 192 193 192 192 196 202 206 208 213 226 239 245 240 225 212 209
Height
5711 5710 5710 5710 5710 5711 5712 5712 5713 5713 5713 5714 5714 5715 5715 5715 5716 5716 5716 5717 5717 5717 5717 5717 5717 5717 5717 5717 5717 5717 5717 5717 5718 5718 5718 5718 5718 5718 5719 5720 5722 5723 5723 5723 5722 5723 5724 5725 5725 5726 5726 5727 5729 5730 5731 5732 5732 5733 5735 5736 5738 5739 5740 5741 5743 5750 5753 5752 5753 5754 5754 5755 5757 5761 5766 5770 5771 5771 5773 5773 5774 5775 5777 5779 5779
5705 5705 5705 5705 5705 5706 5707 5707 5708 5708 5708 5708 5709 5709 5709 5710 5710 5710 5710 5711 5711 5711 5711 5711 5711 5711 5711 5711 5711 5711 5711 5710 5710 5711 5711 5711 5711 5711 5711 5712 5714 5715 5716 5717 5716 5716 5717 5718 5719 5719 5719 5720 5721 5722 5724 5724 5725 5726 5728 5729 5730 5731 5732 5734 5735 5739 5745 5746 5746 5748 5747 5747 5749 5753 5758 5762 5764 5765 5766 5767 5768 5769 5772 5773 5773
5700 5701 5700 5700 5700 5701 5702 5702 5703 5703 5703 5703 5703 5703 5704 5704 5704 5704 5704 5704 5704 5704 5704 5704 5704 5704 5704 5704 5703 5703 5703 5703 5703 5703 5703 5703 5704 5704 5704 5705 5706 5707 5708 5709 5710 5710 5710 5711 5711 5712 5712 5713 5714 5715 5716 5717 5718 5719 5721 5722 5723 5724 5725 5726 5727 5730 5735 5739 5740 5740 5741 5740 5742 5746 5750 5754 5757 5759 5760 5762 5763 5764 5766 5767 5768
5695 5696 5696 5696 5696 5696 5697 5697 5698 5698 5698 5698 5698 5698 5698 5698 5698 5698 5698 5698 5698 5698 5698 5698 5697 5697 5697 5696 5696 5696 5696 5696 5696 5696 5696 5695 5696 5697 5697 5698 5698 5699 5700 5701 5702 5703 5704 5704 5704 5704 5705 5706 5707 5708 5709 5710 5710 5711 5713 5715 5716 5717 5718 5719 5720 5722 5726 5730 5732 5733 5734 5734 5735 5738 5741 5746 5750 5753 5755 5756 5757 5759 5760 5762 5763
5691 5691 5691 5691 5691 5692 5692 5692 5693 5693 5693 5693 5693 5693 5693 5693 5693 5692 5692 5691 5691 5691 5691 5691 5690 5690 5690 5689 5689 5688 5688 5687 5687 5687 5687 5687 5688 5688 5689 5691 5691 5691 5692 5693 5693 5695 5696 5697 5697 5696 5697 5699 5700 5701 5702 5703 5703 5704 5705 5707 5709 5710 5711 5712 5713 5715 5717 5721 5724 5726 5727 5728 5728 5730 5733 5738 5743 5747 5749 5750 5751 5753 5754 5757 5759
5686 5686 5686 5686 5687 5687 5687 5687 5687 5688 5688 5688 5688 5688 5688 5688 5687 5687 5686 5686 5685 5685 5685 5684 5684 5683 5683 5682 5681 5681 5680 5680 5679 5678 5678 5679 5679 5680 5681 5682 5683 5684 5684 5685 5685 5687 5688 5689 5689 5689 5690 5691 5692 5693 5694 5695 5696 5697 5698 5699 5701 5702 5703 5705 5706 5708 5710 5713 5716 5718 5719 5721 5722 5723 5726 5730 5735 5739 5742 5743 5744 5746 5749 5752 5754
5680 5681 5681 5682 5682 5682 5682 5683 5683 5683 5683 5683 5683 5683 5682 5682 5682 5681 5681 5680 5680 5679 5679 5678 5678 5677 5676 5675 5674 5674 5673 5672 5672 5671 5670 5670 5671 5672 5673 5673 5675 5676 5677 5677 5677 5678 5679 5681 5681 5682 5682 5683 5684 5685 5686 5687 5688 5689 5690 5691 5692 5693 5695 5697 5698 5700 5702 5705 5708 5710 5712 5715 5716 5717 5720 5722 5725 5730 5734 5737 5739 5742 5745 5746 5747
5673 5675 5676 5676 5676 5677 5677 5677 5678 5678 5678 5677 5677 5677 5677 5677 5676 5676 5675 5675 5674 5674 5673 5672 5671 5670 5669 5668 5667 5667 5666 5665 5664 5664 5663 5663 5662 5663 5664 5665 5666 5667 5668 5669 5670 5670 5671 5672 5673 5673 5674 5675 5676 5677 5678 5679 5680 5682 5683 5683 5684 5685 5687 5689 5691 5693 5695 5697 5700 5702 5705 5708 5709 5710 5713 5714 5717 5723 5728 5731 5733 5736 5737 5738 5738
5667 5667 5669 5670 5671 5671 5671 5672 5673 5673 5672 5672 5672 5672 5672 5671 5671 5671 5670 5670 5669 5669 5668 5667 5665 5664 5663 5661 5660 5659 5659 5658 5657 5656 5656 5655 5655 5655 5655 5656 5657 5658 5659 5660 5661 5662 5663 5663 5664 5665 5666 5667 5668 5669 5670 5671 5672 5674 5675 5675 5676 5677 5679 5681 5683 5686 5687 5689 5692 5695 5697 5701 5702 5703 5706 5709 5713 5717 5720 5722 5724 5727 5728 5729 5730
5661 5660 5661 5664 5664 5665 5666 5667 5667 5667 5667 5667 5667 5667 5667 5666 5666 5666 5665 5665 5664 5664 5663 5661 5659 5658 5656 5655 5654 5652 5652 5651 5650 5649 5648 5647 5647 5647 5647 5648 5648 5649 5650 5651 5653 5654 5654 5655 5656 5657 5657 5658 5659 5660 5661 5663 5664 5665 5666 5667 5668 5669 5671 5673 5675 5677 5680 5682 5685 5687 5689 5692 5695 5697 5700 5705 5708 5710 5712 5715 5718 5719 5721 5722 5724
5655 5653 5654 5657 5658 5659 5660 5660 5661 5661 5662 5661 5661 5661 5662 5661 5661 5661 5660 5660 5659 5658 5657 5655 5653 5651 5649 5648 5647 5646 5645 5643 5642 5641 5640 5639 5639 5639 5639 5639 5640 5641 5641 5642 5643 5644 5645 5646 5647 5648 5649 5649 5650 5651 5652 5654 5656 5657 5658 5659 5660 5661 5663 5666 5667 5669 5672 5675 5677 5679 5681 5685 5687 5689 5694 5698 5700 5702 5705 5709 5711 5713 5715 5716 5718
5648 5645 5647 5649 5651 5652 5653 5654 5655 5655 5656 5656 5656 5656 5656 5656 5656 5655 5655 5654 5654 5652 5651 5648 5646 5644 5642 5641 5640 5639 5637 5636 5634 5633 5632 5631 5630 5630 5631 5631 5631 5632 5632 5633 5634 5635 5636 5637 5638 5639 5640 5640 5641 5642 5643 5645 5646 5648 5649 5651 5652 5653 5655 5657 5660 5662 5664 5667 5670 5672 5675 5677 5679 5682 5687 5690 5693 5695 5698 5701 5704 5707 5710 5711 5713
5641 5638 5640 5642 5644 5646 5647 5648 5649 5649 5650 5650 5651 5651 5651 5650 5650 5649 5649 5648 5647 5646 5644 5642 5639 5637 5635 5634 5632 5631 5630 5628 5626 5625 5624 5623 5621 5621 5621 5622 5622 5623 5623 5624 5624 5625 5626 5627 5629 5630 5631 5631 5632 5633 5634 5635 5636 5638 5640 5642 5644 5646 5647 5648 5652 5655 5657 5659 5662 5666 5669 5670 5672 5676 5680 5683 5687 5689 5691 5694 5698 5701 5704 5706 5707
5636 5632 5634 5636 5638 5640 5641 5642 5642 5643 5644 5644 5645 5645 5645 5644 5643 5643 5643 5642 5641 5639 5637 5635 5632 5630 5628 5626 5625 5624 5622 5620 5618 5616 5615 5614 5613 5612 5612 5612 5613 5613 5614 5614 5614 5615 5616 5617 5618 5621 5621 5622 5623 5623 5624 5625 5626 5628 5630 5633 5636 5638 5639 5641 5643 5646 5649 5652 5655 5659 5662 5664 5666 5670 5672 5676 5680 5682 5684 5688 5692 5693 5695 5697 5699
5631 5628 5629 5631 5633 5634 5635 5636 5636 5637 5638 5638 5639 5639 5639 5638 5638 5637 5637 5636 5634 5632 5629 5627 5625 5623 5621 5619 5617 5616 5614 5612 5610 5609 5607 5606 5604 5604 5603 5603 5603 5604 5604 5604 5604 5605 5606 5606 5608 5610 5611 5613 5614 5614 5614 5615 5616 5618 5621 5624 5627 5629 5632 5634 5636 5638 5641 5645 5648 5652 5655 5657 5659 5663 5665 5667 5671 5674 5676 5680 5683 5684 5686 5689 5692
5626 5624 5625 5627 5628 5629 5630 5630 5630 5631 5632 5633 5633 5633 5633 5632 5632 5631 5630 5629 5627 5624 5622 5620 5618 5615 5613 5611 5610 5608 5606 5604 5602 5601 5599 5598 5596 5595 5594 5594 5594 5594 5594 5594 5594 5595 5596 5596 5597 5599 5600 5603 5604 5604 5604 5604 5606 5608 5611 5614 5617 5620 5624 5627 5628 5630 5633 5636 5640 5643 5647 5649 5651 5655 5658 5660 5663 5665 5668 5671 5674 5677 5680 5682 5686
5619 5619 5621 5622 5623 5624 5624 5624 5624 5626 5627 5627 5627 5628 5627 5627 5626 5625 5624 5622 5619 5617 5615 5613 5610 5608 5606 5604 5602 5600 5599 5596 5594 5592 5591 5589 5587 5586 5585 5584 5584 5584 5584 5584 5584 5585 5585 5586 5586 5588 5590 5592 5594 5594 5594 5594 5596 5599 5602 5604 5607 5611 5616 5619 5620 5622 5625 5628 5631 5635 5638 5641 5643 5647 5651 5654 5656 5658 5660 5664 5668 5671 5673 5676 5680
5613 5614 5616 5618 5619 5618 5617 5618 5619 5620 5621 5622 5622 5622 5621 5621 5620 5619 5617 5614 5612 5610 5608 5605 5602 5600 5598 5595 5594 5592 5590 5588 5585 5583 5582 5580 5578 5577 5575 5575 5574 5574 5574 5574 5574 5574 5575 5575 5575 5577 5579 5582 5583 5584 5585 5585 5588 5590 5592 5594 5597 5601 5607 5610 5611 5614 5617 5619 5623 5626 5629 5633 5636 5639 5643 5646 5648 5651 5654 5658 5663 5665 5667 5671 5674
5606 5607 5610 5614 5615 5613 5611 5612 5614 5615 5616 5617 5617 5616 5615 5615 5614 5612 5610 5608 5606 5603 5600 5598 5595 5592 5590 5587 5585 5583 5581 5579 5577 5575 5573 5571 5569 5568 5566 5565 5565 5564 5564 5565 5565 5565 5564 5565 5565 5565 5567 5569 5571 5573 5575 5576 5578 5581 5583 5584 5587 5594 5599 5600 5601 5605 5608 5611 5614 5618 5621 5625 5628 5631 5635 5638 5641 5645 5648 5652 5655 5658 5662 5666 5668
5599 5601 5605 5608 5608 5606 5605 5607 5609 5611 5611 5612 5611 5611 5610 5609 5607 5605 5603 5601 5599 5595 5593 5590 5588 5585 5582 5580 5577 5575 5573 5571 5569 5566 5564 5562 5560 5558 5557 5556 5555 5554 5555 5555 5555 5555 5555 5554 5555 5555 5556 5557 5559 5561 5563 5566 5569 5571 5572 5574 5580 5586 5588 5588 5591 5595 5599 5603 5607 5609 5612 5616 5619 5623 5627 5630 5633 5638 5642 5645 5648 5652 5657 5660 5663
5595 5597 5599 5599 5599 5599 5600 5603 5605 5606 5606 5606 5606 5605 5604 5603 5601 5599 5597 5594 5591 5588 5586 5583 5580 5578 5575 5572 5570 5567 5565 5563 5561 5558 5556 5553 5551 5549 5547 5546 5544 5544 5544 5545 5545 5545 5544 5544 5544 5544 5544 5545 5547 5549 5551 5554 5558 5560 5563 5567 5572 5574 5575 5577 5581 5585 5589 5594 5598 5600 5603 5607 5611 5615 5620 5623 5627 5632 5635 5638 5642 5646 5650 5653 5657
5590 5591 5591 5591 5592 5594 5596 5599 5600 5601 5601 5601 5600 5600 5599 5597 5595 5592 5590 5587 5585 5582 5579 5576 5573 5571 5568 5565 5563 5560 5558 5555 5552 5549 5546 5544 5542 5540 5538 5537 5535 5533 5534 5534 5534 5534 5534 5534 5534 5534 5534 5534 5536 5537 5540 5543 5546 5549 5554 5557 5559 5560 5562 5567 5571 5574 5580 5586 5590 5592 5596 5600 5604 5609 5613 5617 5621 5625 5628 5632 5636 5639 5643 5647 5650
5585 5585 5585 5585 5588 5590 5592 5594 5595 5596 5596 5596 5595 5594 5593 5591 5589 5586 5583 5581 5578 5575 5572 5569 5566 5564 5561 5559 5556 5553 5550 5547 5544 5540 5538 5536 5534 5532 5530 5528 5526 5524 5523 5524 5524 5524 5524 5524 5524 5524 5524 5524 5525 5527 5529 5531 5534 5539 5542 5544 5546 5548 5551 5557 5562 5566 5572 5578 5581 5585 5589 5593 5597 5602 5607 5611 5615 5618 5621 5625 5629 5632 5636 5640 5643
5579 5579 5580 5582 5585 5587 5588 5590 5591 5591 5591 5591 5590 5589 5587 5585 5582 5579 5576 5574 5571 5568 5565 5563 5560 5557 5555 5552 5549 5545 5542 5539 5536 5533 5530 5528 5526 5524 5521 5518 5516 5514 5514 5514 5515 5514 5514 5514 5514 5514 5514 5514 5515 5516 5518 5521 5524 5528 5530 5532 5535 5538 5541 5548 5554 5558 5563 5569 5574 5578 5583 5587 5592 5596 5601 5605 5608 5611 5614 5618 5622 5625 5629 5633 5636
5574 5575 5576 5579 5581 5583 5584 5585 5586 5586 5586 5586 5585 5584 5582 5579 5576 5573 5570 5567 5565 5562 5559 5556 5553 5551 5548 5545 5542 5539 5535 5532 5529 5526 5523 5520 5518 5515 5512 5510 5508 5506 5506 5507 5507 5506 5506 5506 5505 5504 5504 5504 5505 5506 5508 5510 5512 5515 5518 5520 5524 5528 5533 5539 5545 5549 5554 5562 5568 5572 5577 5581 5585 5590 5594 5598 5601 5605 5609 5612 5615 5619 5623 5626 5630
5570 5572 5574 5576 5578 5579 5579 5580 5581 5581 5582 5581 5580 5578 5576 5573 5570 5567 5564 5561 5558 5555 5552 5550 5547 5544 5541 5538 5535 5532 5529 5526 5523 5520 5516 5513 5510 5508 5506 5504 5502 5501 5501 5501 5500 5499 5499 5497 5496 5495 5495 5495 5495 5496 5498 5499 5501 5504 5507 5511 5514 5519 5525 5530 5536 5541 5548 5556 5562 5566 5570 5574 5578 5583 5587 5591 5595 5600 5603 5606 5609 5612 5616 5620 5624
5567 5570 5571 5573 5574 5575 5575 5575 5576 5577 5577 5577 5575 5573 5570 5567 5564 5561 5558 5555 5552 5549 5546 5543 5541 5538 5535 5532 5528 5526 5523 5520 5516 5513 5509 5506 5504 5503 5501 5499 5498 5496 5496 5495 5494 5493 5492 5490 5488 5487 5486 5486 5486 5487 5488 5490 5492 5495 5499 5502 5506 5510 5516 5522 5527 5534 5541 5549 5554 5558 5562 5566 5571 5576 5581 5585 5589 5593 5596 5599 5602 5605 5609 5613 5617
5565 5566 5567 5568 5569 5570 5571 5572 5572 5573 5572 5571 5569 5567 5565 5562 5559 5555 5552 5549 5546 5543 5540 5537 5534 5531 5528 5525 5523 5520 5518 5514 5510 5506 5503 5501 5499 5498 5496 5494 5493 5492 5491 5490 5489 5487 5485 5483 5481 5480 5479 5479 5479 5480 5481 5483 5485 5488 5492 5496 5499 5504 5509 5514 5520 5527 5534 5541 5546 5550 5555 5560 5566 5571 5575 5579 5583 5587 5590 5593 5596 5599 5603 5607 5610
5561 5562 5563 5564 5565 5566 5567 5568 5568 5568 5567 5565 5564 5562 5559 5556 5553 5549 5546 5543 5541 5538 5534 5531 5528 5525 5522 5519 5516 5514 5512 5509 5505 5500 5497 5496 5494 5493 5491 5490 5488 5487 5486 5485 5484 5481 5479 5477 5475 5474 5474 5474 5475 5475 5476 5477 5479 5482 5486 5490 5494 5498 5503 5508 5514 5521 5528 5534 5540 5545 5550 5556 5561 5566 5570 5574 5577 5581 5584 5587 5590 5594 5597 5601 5604
5557 5558 5559 5561 5562 5563 5563 5563 5563 5563 5561 5560 5558 5557 5554 5551 5548 5545 5542 5539 5536 5533 5529 5526 5522 5519 5516 5514 5510 5507 5505 5503 5500 5496 5492 5491 5490 5488 5487 5486 5484 5483 5482 5480 5479 5476 5474 5472 5471 5471 5471 5471 5471 5472 5472 5474 5476 5478 5481 5485 5489 5494 5499 5504 5510 5517 5523 5529 5534 5540 5545 5551 5557 5561 5565 5569 5572 5575 5578 5581 5585 5588 5591 5594 5598
5554 5556 5557 5558 5559 5559 5559 5559 5559 5558 5556 5555 5553 5551 5549 5546 5544 5541 5538 5535 5531 5528 5524 5520 5517 5513 5511 5508 5506 5503 5499 5496 5494 5491 5489 5487 5485 5484 5483 5481 5480 5479 5478 5476 5474 5472 5471 5469 5468 5468 5469 5469 5469 5469 5470 5471 5473 5476 5479 5482 5486 5490 5496 5501 5507 5513 5519 5524 5529 5535 5541 5547 5552 5556 5560 5564 5567 5570 5573 5576 5579 5583 5586 5589 5593
5552 5553 5554 5555 5555 5555 5555 5555 5554 5553 5551 5549 5547 5546 5544 5542 5539 5537 5534 5531 5527 5523 5519 5515 5512 5509 5506 5503 5500 5498 5495 5492 5489 5487 5485 5483 5481 5480 5479 5477 5476 5474 5473 5472 5470 5469 5468 5467 5466 5466 5467 5468 5468 5468 5468 5470 5472 5474 5477 5480 5484 5488 5493 5499 5504 5509 5514 5520 5526 5532 5537 5543 5547 5552 5556 5559 5562 5565 5569 5572 5575 5578 5582 5585 5589
5549 5550 5551 5551 5551 5551 5552 5551 5550 5548 5547 5545 5543 5542 5540 5538 5535 5533 5530 5527 5523 5519 5515 5511 5507 5504 5501 5498 5495 5493 5490 5488 5486 5484 5482 5480 5478 5475 5474 5472 5471 5470 5469 5468 5467 5466 5466 5465 5464 5464 5465 5466 5467 5467 5468 5469 5470 5473 5476 5479 5482 5486 5490 5495 5500 5505 5510 5516 5522 5528 5534 5539 5544 5548 5552 5555 5559 5562 5565 5568 5571 5574 5578 5582 5586
5546 5547 5547 5547 5548 5548 5548 5547 5545 5544 5542 5541 5540 5538 5537 5535 5532 5529 5526 5523 5519 5515 5511 5506 5503 5499 5497 5494 5491 5489 5486 5484 5482 5480 5478 5476 5474 5471 5469 5467 5466 5466 5465 5464 5463 5463 5463 5463 5463 5463 5464 5465 5465 5466 5467 5469 5470 5472 5475 5478 5481 5484 5488 5492 5497 5502 5508 5513 5519 5525 5531 5536 5540 5544 5548 5552 5556 5559 5562 5565 5567 5570 5574 5579 5583
5543 5544 5544 5545 5545 5544 5543 5542 5541 5540 5539 5538 5537 5535 5533 5531 5528 5525 5523 5520 5516 5512 5507 5503 5499 5496 5493 5490 5487 5484 5482 5480 5479 5477 5475 5473 5471 5469 5467 5465 5464 5463 5462 5462 5461 5461 5461 5461 5461 5462 5463 5464 5465 5466 5467 5469 5470 5472 5474 5477 5480 5483 5487 5491 5496 5501 5506 5512 5517 5523 5528 5533 5537 5542 5546 5550 5553 5556 5559 5562 5564 5568 5572 5576 5580
5541 5541 5542 5542 5541 5540 5539 5538 5537 5537 5536 5535 5533 5532 5530 5528 5525 5522 5519 5516 5513 5509 5504 5500 5496 5492 5489 5486 5483 5480 5478 5477 5476 5474 5472 5470 5468 5466 5464 5463 5462 5460 5460 5459 5459 5458 5459 5459 5460 5461 5462 5463 5465 5466 5468 5469 5471 5472 5474 5476 5479 5482 5486 5490 5495 5500 5506 5511 5516 5521 5526 5530 5535 5540 5544 5547 5551 5554 5556 5559 5562 5565 5569 5573 5576
5539 5539 5539 5538 5537 5537 5536 5536 5535 5534 5534 5532 5530 5528 5527 5525 5522 5519 5516 5513 5510 5505 5501 5498 5494 5491 5487 5484 5481 5477 5475 5473 5472 5471 5469 5467 5465 5463 5461 5460 5459 5458 5457 5456 5456 5456 5457 5458 5459 5460 5461 5462 5464 5466 5468 5469 5471 5472 5474 5476 5478 5481 5485 5489 5494 5499 5504 5509 5514 5519 5524 5529 5533 5537 5541 5544 5548 5550 5554 5557 5560 5562 5565 5568 5572
5536 5536 5536 5535 5535 5535 5535 5534 5533 5532 5531 5529 5527 5526 5524 5522 5520 5516 5513 5510 5507 5503 5499 5495 5492 5489 5486 5482 5479 5476 5473 5471 5469 5468 5466 5464 5462 5460 5459 5458 5456 5455 5454 5454 5454 5454 5455 5456 5458 5459 5460 5462 5463 5466 5468 5469 5471 5472 5474 5476 5478 5480 5484 5487 5492 5497 5502 5507 5512 5517 5522 5526 5530 5534 5538 5542 5545 5548 5551 5554 5557 5559 5562 5566 5569
5533 5534 5534 5534 5534 5533 5533 5532 5531 5529 5528 5526 5524 5523 5522 5520 5517 5514 5510 5508 5504 5501 5497 5493 5489 5487 5484 5480 5477 5474 5472 5469 5467 5466 5464 5462 5460 5458 5457 5455 5454 5454 5453 5453 5452 5453 5453 5455 5457 5458 5460 5461 5463 5465 5467 5469 5471 5473 5474 5476 5478 5480 5483 5487 5491 5496 5501 5506 5511 5515 5520 5524 5528 5532 5535 5539 5542 5545 5548 5551 5553 5556 5559 5562 5566
5531 5532 5533 5533 5532 5532 5531 5530 5528 5527 5525 5524 5522 5521 5519 5517 5515 5511 5508 5505 5502 5498 5495 5491 5488 5484 5482 5479 5476 5473 5470 5468 5466 5464 5462 5461 5459 5457 5456 5454 5453 5452 5452 5452 5451 5451 5452 5454 5455 5457 5459 5461 5463 5464 5466 5469 5471 5473 5475 5477 5479 5481 5484 5487 5491 5495 5500 5504 5509 5513 5518 5522 5526 5530 5533 5536 5539 5542 5544 5547 5550 5553 5556 5559 5562
5530 5531 5531 5531 5531 5530 5529 5528 5526 5525 5523 5522 5520 5519 5517 5515 5512 5509 5506 5503 5500 5497 5493 5489 5486 5482 5480 5477 5474 5471 5469 5466 5465 5463 5461 5459 5458 5456 5455 5453 5452 5451 5451 5451 5450 5450 5451 5452 5454 5456 5458 5460 5462 5464 5466 5468 5470 5473 5475 5477 5480 5482 5485 5488 5492 5495 5499 5503 5507 5511 5516 5520 5524 5527 5531 5534 5536 5539 5541 5544 5547 5550 5552 5554 5557
5529 5529 5529 5529 5528 5528 5527 5526 5525 5523 5521 5520 5518 5517 5515 5513 5511 5508 5505 5501 5498 5495 5492 5488 5485 5481 5478 5475 5472 5470 5467 5465 5463 5462 5460 5458 5457 5456 5454 5453 5452 5451 5450 5449 5449 5449 5450 5451 5452 5454 5456 5458 5461 5463 5465 5467 5470 5472 5475 5477 5480 5483 5486 5489 5493 5496 5499 5503 5507 5511 5515 5518 5522 5525 5528 5531 5533 5536 5538 5540 5542 5544 5547 5550 5554
5527 5527 5527 5527 5526 5526 5525 5524 5523 5521 5520 5518 5516 5515 5513 5511 5510 5507 5503 5500 5497 5494 5491 5487 5484 5480 5477 5474 5472 5469 5467 5464 5463 5461 5459 5458 5456 5455 5454 5453 5452 5451 5450 5449 5449 5449 5449 5449 5450 5452 5454 5456 5459 5461 5464 5466 5469 5471 5474 5477 5480 5483 5485 5489 5492 5496 5499 5503 5506 5510 5513 5516 5519 5522 5525 5528 5530 5532 5534 5536 5538 5540 5543 5547 5551
5525 5525 5525 5525 5524 5524 5523 5522 5521 5520 5518 5516 5514 5513 5511 5510 5508 5506 5503 5499 5496 5493 5490 5487 5484 5480 5477 5474 5472 5469 5467 5465 5463 5461 5459 5457 5456 5455 5454 5453 5452 5451 5450 5449 5448 5448 5449 5449 5450 5451 5452 5454 5457 5459 5462 5464 5467 5470 5473 5476 5479 5482 5485 5488 5491 5494 5498 5501 5504 5508 5511 5514 5517 5519 5522 5524 5527 5529 5531 5533 5535 5538 5541 5544 5548
5523 5523 5523 5523 5522 5522 5521 5520 5519 5518 5516 5515 5513 5511 5510 5508 5507 5505 5502 5499 5495 5493 5490 5487 5483 5480 5477 5474 5472 5469 5467 5465 5463 5461 5458 5457 5455 5454 5454 5453 5452 5451 5450 5449 5449 5449 5450 5450 5451 5452 5453 5454 5456 5458 5460 5463 5465 5468 5470 5473 5476 5479 5483 5486 5489 5492 5496 5499 5502 5505 5508 5511 5513 5516 5518 5521 5523 5525 5528 5530 5533 5536 5540 5543 5545
5521 5521 5521 5521 5521 5520 5519 5518 5517 5516 5515 5513 5512 5510 5509 5507 5505 5504 5502 5499 5495 5492 5490 5487 5483 5480 5477 5474 5472 5470 5468 5466 5463 5461 5458 5457 5455 5454 5454 5453 5452 5451 5450 5450 5450 5450 5451 5452 5452 5453 5454 5455 5456 5458 5460 5462 5464 5466 5468 5470 5473 5476 5480 5483 5486 5490 5493 5496 5499 5502 5505 5508 5510 5513 5515 5518 5520 5523 5526 5529 5532 5535 5538 5540 5543
5520 5520 5519 5519 5519 5518 5517 5517 5516 5514 5513 5512 5511 5509 5508 5506 5504 5502 5501 5499 5496 5493 5490 5487 5484 5481 5478 5475 5472 5470 5468 5466 5464 5461 5459 5457 5456 5455 5454 5454 5453 5452 5452 5452 5451 5452 5453 5453 5454 5454 5455 5457 5458 5459 5460 5462 5464 5466 5468 5470 5472 5475 5478 5481 5485 5488 5491 5494 5497 5501 5503 5506 5508 5510 5513 5516 5519 5522 5525 5528 5530 5532 5534 5536 5539
5518 5518 5517 5517 5516 5516 5515 5515 5514 5513 5512 5511 5510 5509 5507 5506 5504 5502 5500 5498 5496 5493 5490 5487 5484 5481 5478 5475 5473 5471 5469 5466 5464 5462 5460 5458 5456 5455 5455 5454 5453 5453 5453 5453 5453 5453 5454 5455 5455 5456 5457 5458 5460 5461 5462 5463 5465 5467 5468 5471 5473 5475 5478 5481 5484 5487 5490 5493 5496 5499 5502 5504 5506 5508 5511 5514 5517 5520 5523 5525 5527 5529 5531 5534 5537
5516 5516 5515 5515 5514 5514 5513 5513 5512 5511 5511 5510 5509 5508 5506 5505 5503 5502 5499 5497 5495 5493 5491 5488 5485 5482 5479 5476 5473 5471 5469 5467 5465 5462 5460 5459 5457 5456 5455 5454 5453 5453 5453 5453 5454 5454 5455 5456 5457 5457 5458 5459 5461 5462 5463 5465 5466 5468 5470 5472 5474 5476 5478 5480 5484 5487 5489 5491 5494 5498 5500 5502 5504 5507 5509 5512 5516 5519 5521 5523 5524 5527 5530 5532 5535
5514 5514 5513 5512 5512 5511 5511 5511 5510 5509 5509 5508 5507 5506 5505 5504 5503 5501 5499 5497 5495 5493 5491 5488 5486 5483 5479 5476 5474 5472 5470 5468 5465 5463 5461 5460 5458 5457 5455 5455 5454 5454 5454 5454 5454 5455 5455 5456 5457 5458 5459 5460 5461 5462 5464 5465 5467 5469 5471 5473 5475 5477 5478 5481 5484 5486 5489 5491 5494 5497 5499 5502 5504 5506 5509 5512 5515 5517 5519 5521 5523 5525 5528 5530 5533
5512 5511 5511 5510 5510 5509 5509 5509 5508 5508 5507 5506 5506 5505 5504 5503 5502 5501 5499 5497 5495 5493 5491 5489 5486 5484 5481 5477 5475 5473 5471 5469 5467 5465 5463 5461 5460 5459 5457 5456 5455 5455 5454 5454 5454 5454 5455 5455 5456 5457 5458 5459 5461 5462 5464 5465 5467 5469 5471 5473 5475 5477 5479 5481 5484 5486 5488 5491 5493 5496 5498 5501 5504 5506 5509 5512 5514 5515 5517 5519 5521 5523 5526 5529 5532